Content
SEND FEEDBACK

Daily
Averages
Monthly
Summary
United States of America

CLINTON, NORTH CAROLINA


Home > North America > United States > North Carolina
Elevation: 16 feet     Latitude: 35 01N     Longitude: 078 17W

WEATHER
 
SELECT A DAY
Number of Records: 324,570;   Date Range: 7/10/01 - 11/26/14
 
SHARE

PRINT THIS DATA

[ ← Previous Day ]
WEATHER ALMANAC - FEBRUARY 13, 2013
[ Next Day → ]
[ °C ]   °F
Weather ElementAverageHighLow
Temperature49.4 °F53.4 °F (4:55 pm)46.4 °F (6:55 am)
Dewpoint48.6 °F53.1 °F (4:55 pm)46.4 °F (4:35 am)
Humidity97.1 %100 % (12:35 am)86 % (7:55 pm)
Barometer29.77 in29.97 in (12:35 am)29.63 in (2:15 pm)
Wind Speed4.4 mph12.7 mph (7:55 pm)
Wind Gust21.9 mph (5:55 pm)
Weather ElementAverage
Visibility6.4 mi
Wind DirectionESE (128.7 °)

Weather ElementTotal
Precipitation0.56 in
Heating Degree Days15.1 (Base 65)
Averaged from 70 records on February 13, 2013
WEATHER CONDITIONS BREAKOUT
WIND DIRECTION BREAKOUT
WEATHER BY HOUR - FEBRUARY 13, 2013
[ °C ]   °F
Local TimeTemperatureDewpointHumidityBarometerVisibilityWind DirectionWind SpeedGust SpeedPrecipitationEventsConditions
12:35 AM48.2 °F48.2 °F100 %29.97 in4.0 miCalm0.07 inRainRain
12:55 AM48.2 °F48.2 °F100 %29.92 in10.0 miENE (70°)4.6 mph0.08 inOvercast
1:15 AM48.6 °F48.0 °F98 %29.93 in10.0 miCalmRainLight Rain
1:35 AM48.4 °F48.4 °F100 %29.92 in4.0 miCalm0.03 inRainRain
1:55 AM48.2 °F48.2 °F100 %29.90 in10.0 miCalm0.04 inRainRain
2:35 AM47.7 °F47.7 °F100 %29.88 in5.0 miCalm0.06 inRainLight Rain
2:55 AM48.0 °F47.7 °F99 %29.87 in7.0 miCalm0.07 inRainLight Rain
3:15 AM48.2 °F47.7 °F98 %29.90 in7.0 miCalm0.01 inRainLight Rain
3:35 AM47.3 °F47.1 °F99 %29.86 in7.0 miCalm0.02 inRainRain
3:55 AM47.3 °F46.8 °F98 %29.84 in10.0 miEast (90°)3.5 mph0.02 inRainRain
4:15 AM47.1 °F46.8 °F99 %29.83 in10.0 miNE (50°)3.5 mph0.01 inDrizzle
4:35 AM46.8 °F46.4 °F99 %29.83 in10.0 miNNE (30°)3.5 mph0.01 inOvercast
4:55 AM47.1 °F46.8 °F99 %29.83 in10.0 miNorth (10°)4.6 mph0.01 inOvercast
5:15 AM46.8 °F46.8 °F100 %29.82 in7.0 miCalmDrizzle
5:35 AM46.8 °F46.8 °F100 %29.83 in5.0 miCalm0.01 inDrizzle
5:55 AM46.6 °F46.6 °F100 %29.82 in7.0 miEast (90°)3.5 mph0.01 inDrizzle
6:15 AM46.6 °F46.6 °F100 %29.82 in5.0 miEast (80°)3.5 mph0.01 inHeavy Drizzle
6:35 AM46.6 °F46.6 °F100 %29.83 in5.0 miCalm0.01 inOvercast
6:55 AM46.4 °F46.4 °F100 %29.83 in2.5 miEast (80°)3.5 mph0.02 inHeavy Drizzle
7:15 AM46.4 °F46.4 °F100 %29.82 in3.0 miCalmDrizzle
7:35 AM46.4 °F46.4 °F100 %29.83 in2.0 miNNE (30°)3.5 mphLight Drizzle
7:55 AM46.6 °F46.6 °F100 %29.82 in2.5 miCalm0.01 inLight Drizzle
8:15 AM46.6 °F46.6 °F100 %29.81 in2.0 miNE (50°)3.5 mphDrizzle
8:35 AM46.8 °F46.8 °F100 %29.82 in3.0 miCalmLight Drizzle
8:55 AM46.8 °F46.8 °F100 %29.80 in2.0 miENE (60°)3.5 mphLight Drizzle
9:15 AM46.9 °F46.9 °F100 %29.79 in2.0 miENE (60°)3.5 mph0.01 inLight Drizzle
9:35 AM47.3 °F47.3 °F100 %29.82 in2.5 miNorth (360°)3.5 mph0.01 inLight Drizzle
9:55 AM47.3 °F47.3 °F100 %29.79 in2.0 miENE (70°)3.5 mph0.01 inLight Drizzle
10:15 AM47.5 °F47.5 °F100 %29.78 in5.0 miEast (80°)5.8 mphOvercast
10:35 AM47.7 °F47.7 °F100 %29.76 in5.0 miEast (90°)3.5 mphOvercast
10:55 AM48.2 °F48.2 °F100 %29.77 in10.0 miCalmOvercast
11:15 AM48.6 °F48.4 °F99 %29.76 in10.0 miEast (100°)3.5 mphOvercast
11:35 AM48.9 °F48.4 °F98 %29.75 in10.0 miENE (60°)4.6 mphOvercast
11:55 AM48.9 °F48.6 °F99 %29.75 in3.0 miCalmOvercast
12:15 PM48.9 °F48.9 °F100 %29.71 in2.0 miCalmOvercast
12:35 PM48.9 °F48.9 °F100 %29.72 in1.8 miCalmOvercast
12:55 PM49.1 °F49.1 °F100 %29.70 in1.5 miCalmOvercast
1:15 PM49.1 °F49.1 °F100 %29.70 in1.8 miCalmOvercast
1:35 PM49.6 °F49.6 °F100 %29.66 in2.5 miSE (140°)3.5 mphOvercast
1:55 PM50.2 °F50.2 °F100 %29.65 in3.0 miSSE (150°)3.5 mphOvercast
2:15 PM50.2 °F50.2 °F100 %29.63 in4.0 miSSE (160°)3.5 mphOvercast
2:35 PM50.9 °F50.9 °F100 %29.69 in4.0 miSSW (210°)3.5 mphOvercast
2:55 PM50.9 °F50.9 °F100 %29.65 in1.8 miSSE (160°)5.8 mphRainLight Rain
3:15 PM51.3 °F51.3 °F100 %29.66 in2.5 miSW (220°)4.6 mphOvercast
3:35 PM51.4 °F51.4 °F100 %29.64 in1.8 miSSW (210°)3.5 mphOvercast
3:55 PM51.8 °F51.8 °F100 %29.68 in1.2 miWSW (250°)5.8 mphOvercast
4:15 PM52.0 °F52.0 °F100 %29.67 in1.2 miSW (230°)5.8 mphLight Drizzle
4:35 PM52.7 °F52.7 °F100 %29.66 in5.0 miSSW (210°)8.1 mphOvercast
4:55 PM53.4 °F53.1 °F99 %29.67 in7.0 miWest (260°)9.2 mph16.1 mphRainLight Rain
5:15 PM53.2 °F52.9 °F99 %29.67 in7.0 miWSW (240°)10.4 mph0.01 inRainLight Rain
5:35 PM53.2 °F52.2 °F96 %29.69 in10.0 miWSW (250°)11.5 mph17.3 mph0.01 inOvercast
5:55 PM53.1 °F51.4 °F94 %29.67 in10.0 miSW (230°)9.2 mph21.9 mph0.01 inOvercast
6:15 PM52.9 °F51.1 °F94 %29.67 in10.0 miWSW (240°)10.4 mph18.4 mphRainLight Rain
6:35 PM52.9 °F50.9 °F93 %29.72 in10.0 miWSW (250°)10.4 mphOvercast
6:55 PM52.7 °F50.9 °F94 %29.72 in10.0 miWSW (250°)11.5 mph17.3 mphMostly Cloudy
7:15 PM52.7 °F50.5 °F92 %29.73 in10.0 miWest (260°)8.1 mphMostly Cloudy
7:35 PM52.2 °F49.6 °F91 %29.72 in10.0 miWest (260°)9.2 mphMostly Cloudy
7:55 PM52.7 °F48.6 °F86 %29.75 in10.0 miWest (260°)12.7 mph19.6 mphOvercast
8:15 PM52.2 °F48.2 °F86 %29.74 in10.0 miWest (260°)11.5 mph17.3 mphOvercast
8:35 PM52.0 °F48.4 °F88 %29.75 in10.0 miWest (260°)8.1 mph16.1 mphOvercast
8:55 PM51.8 °F48.2 °F88 %29.75 in10.0 miWest (260°)11.5 mphOvercast
9:15 PM51.8 °F48.2 °F88 %29.77 in10.0 miWSW (250°)8.1 mphOvercast
9:35 PM51.6 °F48.2 °F88 %29.78 in10.0 miWest (260°)9.2 mphOvercast
9:55 PM51.4 °F47.8 °F87 %29.78 in10.0 miWSW (250°)8.1 mphOvercast
10:15 PM50.9 °F48.0 °F90 %29.79 in10.0 miWest (260°)8.1 mphMostly Cloudy
10:35 PM50.2 °F47.7 °F91 %29.80 in10.0 miWest (260°)5.8 mphScattered Clouds
10:55 PM50.0 °F47.5 °F91 %29.80 in10.0 miWest (260°)5.8 mphScattered Clouds
11:15 PM49.3 °F47.5 °F94 %29.81 in10.0 miWest (260°)4.6 mphClear
11:35 PM49.1 °F47.3 °F93 %29.81 in10.0 miWest (260°)4.6 mphScattered Clouds
11:55 PM49.1 °F46.8 °F92 %29.82 in10.0 miWest (270°)4.6 mphScattered Clouds
Hourly data recorded from KCTZ, located miles away from Clinton, North Carolina







STORIES FROM OUR PARTNERS